Simultaneous Nadir Overpasses (SNOs) Predictions

Prediction of SNOs between GOES-16 and METOP-B Satellite Orbit:

Table of predicted SNOs for the next 14.0 days since TLE Epoch: 8/26/2023
Index Date Time (GOES-16) GOES-16 Lat,Lon METOP-B Lat,Lon Distance(km) Time Diff (sec)
1 08/27/2023 02:31:53 0.03, -75.21 -0.17, -76.08 100.07 80
2 08/28/2023 02:13:53 0.02, -75.21 0.92, -71.09 469.41 80
3 08/29/2023 14:30:04 -0.03, -75.23 0.04, -75.66 48.83 80
4 09/01/2023 02:31:03 0.04, -75.24 0.05, -75.26 2.53 80
5 09/03/2023 14:29:13 -0.04, -75.28 -0.14, -74.82 52.12 80
6 09/05/2023 02:48:12 0.04, -75.29 -0.86, -79.42 469.90 80
7 09/06/2023 02:24:51 0.03, -75.31 0.25, -74.42 101.19 80
8 09/07/2023 14:43:42 -0.03, -75.34 0.76, -78.99 414.75 80
9 09/08/2023 14:25:41 -0.03, -75.36 -0.35, -73.99 156.65 80
